Cecil Field, FL

4:57 AM EST on November 23, 2017 (GMT -0500)
Cecil

Weather History for KVQQ - March, 2014

Change the Weather History Date:

Friday, March 14, 2014

  Actual Average (KNIP) Record (KNIP)
Temperature  
Mean Temperature 50 °F -  
Max Temperature 69 °F 71 °F 88 °F (2016)
Min Temperature 30 °F 54 °F 39 °F (1998)
Degree Days  
Heating Degree Days 16    
Moisture  
Dew Point 38 °F    
Average Humidity 80    
Maximum Humidity 100    
Minimum Humidity 37    
Precipitation  
Precipitation 0.00 in - - ()
Sea Level Pressure  
Sea Level Pressure 30.25 in    
Wind  
Wind Speed 2 mph (ESE)    
Max Wind Speed 15 mph    
Max Gust Speed -    
Visibility 10 miles    
Events      
Averages and records for this station are not official NWS values.
T = Trace of Precipitation, MM = Missing Value Source: NWS Daily Summary

Daily Weather History Graph

Daily Weather History Graph

Search for Another Location

Airport or City:

Trip Planner

Search our weather history database for the weather conditions in past years. The results will help you decide how hot, cold, wet, or windy it might be!

Date:

Astronomy

Mar. 14, 2014 Rise Set
Actual Time 7:38 AM EDT 7:35 PM EDT
Civil Twilight 7:14 AM EDT 7:59 PM EDT
Nautical Twilight 6:46 AM EDT 8:26 PM EDT
Astronomical Twilight 6:18 AM EDT 8:54 PM EDT
Moon 6:00 PM EDT (3/14) 6:11 AM EDT (3/14)
Length of Visible Light 12h 44m
Length of Day
11h 56m
Waxing Gibbous, 96% of the Moon is Illuminated
Mar 14
Waxing Gibbous
Mar 16
Full
Mar 23
Last Quarter
Mar 30
New
Apr 7
First Quarter

Hourly Weather History & Observations

Time (EDT) Temp. Dew Point Humidity Pressure Visibility Wind Dir Wind Speed Gust Speed Precip Events Conditions
12:15 AM 35.6 °F 32.0 °F 87% 30.25 in 10.0 mi Calm Calm - N/A   Clear
12:35 AM 35.6 °F 32.0 °F 87% 30.26 in 10.0 mi Calm Calm - N/A   Clear
12:55 AM 33.8 °F 32.0 °F 93% 30.27 in 10.0 mi Calm Calm - N/A   Clear
1:15 AM 33.8 °F 32.0 °F 93% 30.26 in 10.0 mi Calm Calm - N/A   Clear
1:35 AM 32.0 °F 32.0 °F 100% 30.27 in 10.0 mi Calm Calm - N/A   Clear
1:55 AM 32.0 °F 32.0 °F 100% 30.27 in 10.0 mi Calm Calm - N/A   Clear
2:15 AM 32.0 °F 32.0 °F 100% 30.27 in 10.0 mi Calm Calm - N/A   Clear
2:35 AM 32.0 °F 32.0 °F 100% 30.27 in 10.0 mi Calm Calm - N/A   Clear
2:55 AM 32.0 °F 32.0 °F 100% 30.27 in 10.0 mi Calm Calm - N/A   Clear
3:15 AM 32.0 °F 32.0 °F 100% 30.27 in 10.0 mi Calm Calm - N/A   Clear
3:35 AM 32.0 °F 32.0 °F 100% 30.26 in 10.0 mi Calm Calm - N/A   Clear
3:55 AM 32.0 °F 32.0 °F 100% 30.26 in 10.0 mi Calm Calm - N/A   Clear
4:15 AM 32.0 °F 32.0 °F 100% 30.26 in 9.0 mi Calm Calm - N/A   Clear
4:35 AM 32.0 °F 32.0 °F 100% 30.26 in 10.0 mi Calm Calm - N/A   Clear
4:55 AM 32.0 °F 32.0 °F 100% 30.26 in 9.0 mi Calm Calm - N/A   Clear
5:15 AM 30.2 °F 30.2 °F 100% 30.26 in 8.0 mi Calm Calm - N/A   Clear
5:35 AM 32.0 °F 30.2 °F 93% 30.27 in 10.0 mi Calm Calm - N/A   Clear
5:55 AM 32.0 °F 30.2 °F 93% 30.28 in 10.0 mi Calm Calm - N/A   Clear
6:15 AM 32.0 °F 30.2 °F 93% 30.28 in 9.0 mi Calm Calm - N/A   Clear
6:35 AM 30.2 °F 30.2 °F 100% 30.29 in 9.0 mi Calm Calm - N/A   Clear
6:50 AM 30.2 °F 30.2 °F 100% 30.29 in 10.0 mi Calm Calm - N/A   Clear
7:50 AM 30.2 °F 30.2 °F 100% 30.31 in 10.0 mi Calm Calm - N/A   Clear
8:50 AM 35.6 °F 33.8 °F 93% 30.32 in 10.0 mi Calm Calm - N/A   Clear
9:50 AM 51.8 °F 37.4 °F 58% 30.33 in 10.0 mi Calm Calm - N/A   Clear
10:50 AM 59.0 °F 35.6 °F 42% 30.33 in 10.0 mi East 9.2 mph - N/A   Clear
11:50 AM 62.6 °F 39.2 °F 42% 30.33 in 10.0 mi East 9.2 mph - N/A   Clear
12:50 PM 64.4 °F 39.2 °F 40% 30.33 in 10.0 mi East 6.9 mph - N/A   Clear
1:50 PM 66.2 °F 41.0 °F 40% 30.31 in 10.0 mi South 8.1 mph - N/A   Clear
2:50 PM 68.0 °F 41.0 °F 37% 30.27 in 10.0 mi ESE 11.5 mph - N/A   Clear
3:50 PM 68.0 °F 41.0 °F 37% 30.23 in 10.0 mi East 11.5 mph - N/A   Clear
4:50 PM 69.8 °F 42.8 °F 38% 30.19 in 10.0 mi East 8.1 mph - N/A   Clear
5:50 PM 68.0 °F 46.4 °F 46% 30.17 in 10.0 mi East 11.5 mph - N/A   Clear
6:50 PM 66.2 °F 48.2 °F 52% 30.19 in 10.0 mi East 15.0 mph - N/A   Clear
7:50 PM 62.6 °F 48.2 °F 59% 30.20 in 10.0 mi East 11.5 mph - N/A   Clear
8:15 PM 60.8 °F 48.2 °F 63% 30.20 in 10.0 mi East 3.5 mph - N/A   Clear
8:35 PM 59.0 °F 48.2 °F 67% 30.20 in 10.0 mi Calm Calm - N/A   Clear
8:55 PM 57.2 °F 48.2 °F 72% 30.20 in 10.0 mi Calm Calm - N/A   Clear
9:15 PM 57.2 °F 48.2 °F 72% 30.20 in 10.0 mi Calm Calm - N/A   Clear
9:35 PM 57.2 °F 48.2 °F 72% 30.20 in 10.0 mi Calm Calm - N/A   Clear
9:55 PM 55.4 °F 48.2 °F 77% 30.22 in 10.0 mi Calm Calm - N/A   Clear
10:15 PM 50.0 °F 46.4 °F 87% 30.22 in 10.0 mi Calm Calm - N/A   Clear
10:35 PM 50.0 °F 48.2 °F 94% 30.22 in 10.0 mi Calm Calm - N/A   Clear
10:55 PM 50.0 °F 48.2 °F 94% 30.22 in 10.0 mi Calm Calm - N/A   Clear
11:15 PM 48.2 °F 46.4 °F 93% 30.22 in 10.0 mi Calm Calm - N/A   Clear
11:35 PM 53.6 °F 48.2 °F 82% 30.21 in 10.0 mi SE 3.5 mph - N/A   Clear
11:55 PM 55.4 °F 48.2 °F 77% 30.20 in 10.0 mi SSE 3.5 mph - N/A   Clear